Concord, NH

11:33 PM EDT on March 27, 2017 (GMT -0400)
Concord Municipal

Weather History for KCON - March, 2013

Change the Weather History Date:

Saturday, March 23, 2013

  Actual Average Record
Temperature  
Mean Temperature 29 °F 36 °F  
Max Temperature 39 °F 46 °F 80 °F (1938)
Min Temperature 18 °F 25 °F -10 °F (1875)
Degree Days  
Heating Degree Days 36 29  
Month to date heating degree days 774 766  
Since 1 July heating degree days 5703 6026  
Cooling Degree Days 0 0  
Month to date cooling degree days 0 0  
Year to date cooling degree days 0 0  
Moisture  
Dew Point 18 °F    
Average Humidity 61    
Maximum Humidity 84    
Minimum Humidity 37    
Precipitation  
Precipitation 0.00 in 0.12 in 1.37 in (2010)
Month to date precipitation 1.59 2.38  
Year to date precipitation 6.68 7.70  
Snow  
Snow 0.00 in 0.40 in 10.00 in (1869)
Month to date snowfall 16.0 9.0  
Since 1 July snowfall 83.2 56.5  
Snow Depth 10.00 in    
Sea Level Pressure  
Sea Level Pressure 29.69 in    
Wind  
Wind Speed 13 mph (WNW)    
Max Wind Speed 28 mph    
Max Gust Speed 37 mph    
Visibility 10 miles    
Events      
T = Trace of Precipitation, MM = Missing Value Source: NWS Daily Summary

Daily Weather History Graph

Daily Weather History Graph

Search for Another Location

Airport or City:

Trip Planner

Search our weather history database for the weather conditions in past years. The results will help you decide how hot, cold, wet, or windy it might be!

Date:

Astronomy

Mar. 23, 2013 Rise Set
Actual Time 6:43 AM EDT 7:02 PM EDT
Civil Twilight 6:15 AM EDT 7:30 PM EDT
Nautical Twilight 5:41 AM EDT 8:04 PM EDT
Astronomical Twilight 5:07 AM EDT 8:38 PM EDT
Moon 3:20 PM EDT (3/23) 4:23 AM EDT (3/23)
Length of Visible Light 13h 15m
Length of Day
12h 18m
Waxing Gibbous, 85% of the Moon is Illuminated
Mar 23
Waxing Gibbous
Mar 27
Full
Apr 3
Last Quarter
Apr 10
New
Apr 18
First Quarter

Hourly Weather History & Observations

Time (EDT) Temp. Windchill Dew Point Humidity Pressure Visibility Wind Dir Wind Speed Gust Speed Precip Events Conditions
12:51 AM 28.9 °F 20.4 °F 18.0 °F 64% 29.72 in 10.0 mi WNW 9.2 mph - N/A   Scattered Clouds
2:51 AM 27.0 °F 19.5 °F 17.1 °F 66% 29.70 in 10.0 mi West 6.9 mph - N/A   Mostly Cloudy
3:51 AM 25.0 °F - 16.0 °F 69% 29.70 in 10.0 mi Calm Calm - N/A   Clear
4:51 AM 24.1 °F 17.0 °F 16.0 °F 71% 29.68 in 10.0 mi West 5.8 mph - N/A   Partly Cloudy
5:51 AM 19.9 °F - 16.0 °F 85% 29.68 in 10.0 mi Calm Calm - N/A   Clear
6:51 AM 24.1 °F 19.7 °F 17.1 °F 75% 29.67 in 10.0 mi WSW 3.5 mph - N/A   Clear
7:51 AM 28.0 °F 19.3 °F 19.0 °F 69% 29.67 in 10.0 mi WSW 9.2 mph - N/A   Overcast
8:51 AM 30.9 °F 20.2 °F 19.0 °F 61% 29.67 in 10.0 mi West 15.0 mph 21.9 mph N/A   Partly Cloudy
9:51 AM 33.1 °F 22.2 °F 19.0 °F 56% 29.66 in 10.0 mi WNW 17.3 mph 24.2 mph N/A   Mostly Cloudy
10:51 AM 34.0 °F 23.0 °F 17.1 °F 50% 29.65 in 10.0 mi WNW 18.4 mph 25.3 mph N/A   Mostly Cloudy
11:51 AM 35.1 °F 23.3 °F 16.0 °F 46% 29.64 in 10.0 mi WNW 23.0 mph 32.2 mph N/A   Overcast
12:51 PM 36.0 °F 25.0 °F 16.0 °F 44% 29.64 in 10.0 mi WNW 20.7 mph 33.4 mph N/A   Overcast
1:51 PM 37.0 °F 27.0 °F 17.1 °F 44% 29.63 in 10.0 mi West 18.4 mph 28.8 mph N/A   Overcast
2:51 PM 37.9 °F 27.9 °F 16.0 °F 41% 29.63 in 10.0 mi WNW 19.6 mph 34.5 mph N/A   Mostly Cloudy
3:51 PM 39.0 °F 29.0 °F 16.0 °F 39% 29.64 in 10.0 mi WNW 20.7 mph 34.5 mph N/A   Overcast
4:51 PM 37.9 °F 28.9 °F 17.1 °F 43% 29.66 in 10.0 mi WNW 16.1 mph 24.2 mph N/A   Overcast
5:51 PM 37.0 °F 26.7 °F 18.0 °F 46% 29.68 in 10.0 mi WNW 19.6 mph 29.9 mph N/A   Overcast
6:51 PM 36.0 °F 25.3 °F 19.0 °F 50% 29.71 in 10.0 mi NW 19.6 mph 26.5 mph N/A   Mostly Cloudy
7:51 PM 35.1 °F 26.4 °F 19.9 °F 54% 29.73 in 10.0 mi NW 12.7 mph - N/A   Mostly Cloudy
8:51 PM 34.0 °F 24.2 °F 19.9 °F 56% 29.75 in 10.0 mi WNW 15.0 mph 25.3 mph N/A   Overcast
9:51 PM 34.0 °F 27.2 °F 19.0 °F 54% 29.76 in 10.0 mi WNW 8.1 mph - N/A   Clear
10:51 PM 34.0 °F 26.6 °F 19.0 °F 54% 29.75 in 10.0 mi WNW 9.2 mph 18.4 mph N/A   Overcast
11:51 PM 34.0 °F 26.6 °F 19.9 °F 56% 29.76 in 10.0 mi WNW 9.2 mph - N/A   Overcast